CZ-4B DEB, 40531

Orbit data source: Space-Track

CZ-4B DEB, 40531 is space debris in LEO originally from a launch on Fri, 25 Oct 2013 UTC launched from the Jiuquan Satellite Launch Center, China (JSC). Debris objects in space refer to the collection of defunct objects orbiting the Earth. Examples of debris include non-operational satellites, rocket bodies, and fragments generated from explosions, collisions, or faulty payload assembly.

Loading next visibility...
Identifier
40531, 2013-057D
Orbit
LEO
Country
Flag of CNCN / PRC
Related business
Manufacturer
SAST
Mission
Spacecraft
Bus & Motor
Unknown
Mass
Unknown
Launch date (UTC)
2013-10-25 (12 years ago)
Launch vehicle
Unknown
Launch site
Jiuquan Satellite Launch Center, China (JSC)
Object type
Payload
Rocket body
Debris
Shape & HBR
Unknown shape, 0.1 m
Radar Cross Section
Small (<0.1 m²)

Expand to show TLE details & history
Last TLE update: 4 days ago

TLE from 4 days ago
0 CZ-4B DEB
1 40531U 13057D   25303.92993544  .00008238  00000-0  14996-2 0  9999
2 40531  74.9687 284.5947 0184644  53.4801 308.3212 14.55666510558425
Epoch: 2025-10-30T22:19Z
TLE epoch observation values (Epoch: 2025-10-30T22:19:06.422Z)
Latitude
0.00003°
Longitude
-89.66371°
Altitude
630.265 km
Speed
7.586 km/s
True Right ascension
18h 58m 22s
True Declination
0° 00' 00"
Sunlit
Object was in daylight at epoch
Visualization orbit readout
Latitude
Unknown
Longitude
Unknown
Altitude
Unknown
Speed
Unknown
Apparent Right ascension
Unknown
Apparent Declination
Unknown
Sunlit
N/A
Visualization observer readout
Local Sidereal Time
17:54:59
Azimuth
Unknown
Elevation
Unknown
Doppler factor
Unknown
Orbital elements
Apogee altitude
835.505 km
Perigee altitude
573.943 km
Semi-major axis
7,082.861 km
Eccentricity
0.01846
Inclination
74.9687°
RAAN
284.5947°
Arg. of periapsis
53.4801°
True anomaly
306.63736°
Mean anomaly
308.3212°
Eccentric anomaly
307.48168°
Mean motion
3.64108 °/min
Orbital period
98.87 mins
BSTAR
0.0014996
Loading maneuver chart data...
Computing Atmospheric mass density...
Loading historical data...
Loading historical data...
Loading historical data...
Loading historical data...
Loading historical data...
Loading historical data...
Loading historical data...
Other satellites on launch #57 in the year 2013 (2013-10-25 UTC)

Documentation

Showing up to 5 results
|